Monte Cimone, Italy

7:30 PM CET on March 25, 2017 (GMT +0100)
Monte Cimone

Weather History for LIVC - May, 2013

Change the Weather History Date:

Thursday, May 2, 2013

  Actual Average Record
Temperature  
Mean Temperature 44 °F -  
Max Temperature 46 °F 42 °F 53 °F (2005)
Min Temperature 42 °F 34 °F 28 °F (1998)
Degree Days  
Heating Degree Days 21    
Moisture  
Dew Point 42 °F    
Average Humidity 91    
Maximum Humidity 100    
Minimum Humidity 61    
Precipitation  
Precipitation 0.00 in 0.08 in - ()
Sea Level Pressure  
Sea Level Pressure 30.12 in    
Wind  
Wind Speed 21 mph ()    
Max Wind Speed 48 mph    
Max Gust Speed -    
Visibility 1.8 miles    
Events Fog    
Averages and records for this station are not official NWS values.
T = Trace of Precipitation, MM = Missing Value Source: Averaged Metar Reports

Daily Weather History Graph

Daily Weather History Graph

Search for Another Location

Airport or City:

Trip Planner

Search our weather history database for the weather conditions in past years. The results will help you decide how hot, cold, wet, or windy it might be!

Date:

Astronomy

May. 02, 2013 Rise Set
Actual Time 6:06 AM CEST 8:22 PM CEST
Civil Twilight 5:35 AM CEST 8:54 PM CEST
Nautical Twilight 4:55 AM CEST 9:33 PM CEST
Astronomical Twilight 4:11 AM CEST 10:18 PM CEST
Moon 1:59 AM CEST (5/2) 12:37 PM CEST (5/2)
Length of Visible Light 15h 19m
Length of Day
14h 15m
Waning Gibbous, 51% of the Moon is Illuminated
May 2
Waning Gibbous
May 2
Last Quarter
May 10
New
May 18
First Quarter
May 25
Full

Hourly Weather History & Observations

Time (CEST) Temp. Windchill Dew Point Humidity Pressure Visibility Wind Dir Wind Speed Gust Speed Precip Events Conditions
12:55 AM 42.8 °F 29.9 °F 39.2 °F 87% 30.15 in 6.2 mi SW 48.3 mph - N/A   Scattered Clouds
1:55 AM 42.8 °F 30.1 °F 39.2 °F 87% 30.15 in 6.2 mi SW 46.0 mph - N/A   Scattered Clouds
2:00 AM 43 °F - 40 °F 83%  in 9 mi SW 46.0 mph - -   Mostly Cloudy
2:55 AM 42.8 °F 30.4 °F 42.8 °F 100% 30.15 in 6.2 mi SW 43.7 mph - N/A   Scattered Clouds
3:55 AM 42.8 °F 30.8 °F 42.8 °F 100% 30.12 in 0.9 mi WSW 40.3 mph - N/A   Scattered Clouds
4:55 AM 42.8 °F 31.0 °F 42.8 °F 100% 30.12 in 0.7 mi WSW 39.1 mph - N/A   Mist
5:55 AM 42.8 °F 31.6 °F 42.8 °F 100% 30.12 in 0.0 mi WSW 34.5 mph - N/A Fog Fog
6:55 AM 42.8 °F 36.6 °F 42.8 °F 100% 30.12 in 0.0 mi WSW 11.5 mph - N/A Fog Fog
7:55 AM 42.8 °F 36.6 °F 42.8 °F 100% 30.12 in 0.0 mi WSW 11.5 mph - N/A Fog Fog
8:00 AM 43 °F - 43 °F 98%  in 0 mi WSW 11.5 mph - - Fog Heavy Fog
8:55 AM 42.8 °F 36.6 °F 42.8 °F 100% 30.12 in 0.0 mi WSW 11.5 mph - N/A Fog Fog
9:55 AM 44.6 °F 39.7 °F 42.8 °F 93% 30.12 in 0.0 mi WSW 9.2 mph - N/A Fog Fog
10:55 AM 44.6 °F 39.7 °F 42.8 °F 93% 30.12 in 0.0 mi WSW 9.2 mph - N/A Fog Fog
11:55 AM 44.6 °F 39.7 °F 41.0 °F 87% 30.15 in 0.0 mi West 9.2 mph - N/A Fog Fog
12:55 PM 46.4 °F 41.9 °F 42.8 °F 87% 30.15 in 0.2 mi WSW 9.2 mph - N/A Fog Fog
1:55 PM 46.4 °F 44.3 °F 42.8 °F 87% 30.12 in 0.2 mi WNW 4.6 mph - N/A Fog Fog
2:00 PM 46 °F - 43 °F 84%  in 0 mi WNW 4.6 mph - - Fog Heavy Fog
2:55 PM 46.4 °F - 42.8 °F 87% 30.12 in 0.3 mi Calm Calm - N/A Fog Fog
3:55 PM 46.4 °F - 42.8 °F 87% 30.12 in 0.1 mi Calm Calm - N/A Fog Fog
4:55 PM 46.4 °F - 44.6 °F 93% 30.12 in 0.1 mi Calm Calm - N/A Fog Fog
5:55 PM 46.4 °F - 42.8 °F 87% 30.12 in 0.1 mi Calm Calm - N/A Fog Fog
6:55 PM 46.4 °F 44.3 °F 42.8 °F 87% 30.12 in 0.1 mi WSW 4.6 mph - N/A Fog Fog
7:55 PM 46.4 °F 42.4 °F 44.6 °F 93% 30.09 in 0.0 mi WSW 8.1 mph - N/A Fog Fog
8:00 PM 46 °F - 45 °F 96%  in 0 mi WSW 8.1 mph - - Fog Heavy Fog
8:55 PM 44.6 °F 40.7 °F 42.8 °F 93% 30.09 in 0.2 mi WSW 6.9 mph - N/A Fog Fog
9:55 PM 44.6 °F 39.7 °F 41.0 °F 87% 30.12 in 6.2 mi WSW 9.2 mph - N/A   Mostly Cloudy
10:55 PM 44.6 °F 39.7 °F 44.6 °F 100% 30.12 in 6.2 mi WSW 9.2 mph - N/A   Scattered Clouds
11:55 PM 44.6 °F 40.7 °F 32.0 °F 61% 30.12 in 6.2 mi WSW 6.9 mph - N/A   Mostly Cloudy